QPF
0.04 0.05 0.04 0.03 0.04 0.04 0.02 0.01 0.00 0.00 0.00 0.00 0.00 0.00 0.00 0.00 0.00 0.00 0.00 0.00 0.00 0.00 0.01 0.01 0.01 0.00 0.00 0.00 0.00 0.00 0.00 0.01 0.02 0.02 0.02 0.03 0.03 0.03 0.02 0.02 0.02 0.01 0.01 0.01 0.01 0.00 0.00 0.00 0.00
0.05 0.06 0.07 0.06 0.04 0.04 0.02 0.00 0.00 0.00 0.00 0.00 0.00 0.01 0.01 0.01 0.00 0.00 0.01 0.01 0.00 0.00 0.01 0.01 0.01 0.00 0.00 0.00 0.00 0.00 0.00 0.01 0.02 0.02 0.03 0.03 0.03 0.02 0.02 0.01 0.01 0.01 0.00 0.00 0.00 0.00 0.00 0.00 0.00
0.08 0.09 0.12 0.09 0.04 0.03 0.01 0.00 0.00 0.01 0.00 0.01 0.01 0.01 0.01 0.01 0.01 0.01 0.01 0.01 0.01 0.01 0.01 0.01 0.01 0.01 0.00 0.00 0.00 0.00 0.01 0.02 0.02 0.02 0.03 0.03 0.03 0.02 0.01 0.01 0.01 0.00 0.00 0.00 0.00 0.00 0.00 0.00 0.00
0.11 0.14 0.15 0.11 0.05 0.01 0.01 0.00 0.00 0.01 0.01 0.01 0.01 0.01 0.01 0.01 0.01 0.01 0.02 0.02 0.01 0.01 0.01 0.01 0.01 0.01 0.00 0.00 0.00 0.00 0.01 0.02 0.03 0.03 0.03 0.03 0.03 0.03 0.02 0.01 0.00 0.00 0.00 0.00 0.00 0.00 0.00 0.00 0.00
0.14 0.17 0.16 0.10 0.05 0.01 0.00 0.01 0.01 0.02 0.03 0.02 0.02 0.02 0.02 0.02 0.01 0.02 0.02 0.03 0.02 0.02 0.02 0.02 0.01 0.01 0.00 0.00 0.00 0.00 0.01 0.01 0.02 0.02 0.02 0.03 0.03 0.02 0.02 0.01 0.00 0.00 0.00 0.00 0.00 0.00 0.00 0.00 0.00
0.17 0.16 0.15 0.09 0.03 0.02 0.01 0.01 0.01 0.02 0.03 0.03 0.03 0.03 0.04 0.02 0.03 0.04 0.04 0.04 0.04 0.03 0.03 0.03 0.02 0.01 0.01 0.01 0.00 0.01 0.01 0.01 0.02 0.02 0.02 0.02 0.03 0.02 0.01 0.00 0.00 0.00 0.00 0.00 0.00 0.00 0.00 0.00 0.00
0.16 0.13 0.10 0.07 0.03 0.03 0.02 0.01 0.02 0.02 0.04 0.03 0.03 0.04 0.04 0.06 0.06 0.07 0.10 0.09 0.08 0.07 0.05 0.04 0.03 0.02 0.01 0.01 0.01 0.01 0.01 0.01 0.02 0.02 0.01 0.02 0.02 0.02 0.01 0.00 0.00 0.00 0.00 0.00 0.00 0.00 0.00 0.00 0.00
0.17 0.13 0.07 0.06 0.04 0.03 0.02 0.02 0.03 0.04 0.04 0.03 0.04 0.04 0.06 0.08 0.07 0.11 0.14 0.15 0.13 0.11 0.10 0.06 0.04 0.02 0.01 0.01 0.01 0.01 0.01 0.01 0.01 0.01 0.01 0.01 0.02 0.01 0.01 0.00 0.00 0.00 0.00 0.00 0.00 0.00 0.00 0.00 0.00
0.15 0.13 0.07 0.05 0.05 0.04 0.02 0.02 0.03 0.04 0.05 0.04 0.05 0.05 0.08 0.10 0.10 0.12 0.17 0.19 0.17 0.15 0.13 0.08 0.04 0.03 0.01 0.01 0.01 0.01 0.01 0.01 0.01 0.01 0.00 0.01 0.01 0.01 0.00 0.00 0.00 0.00 0.00 0.00 0.00 0.00 0.00 0.00 0.00
0.15 0.09 0.05 0.05 0.05 0.05 0.05 0.03 0.04 0.07 0.07 0.06 0.06 0.07 0.11 0.12 0.11 0.11 0.15 0.19 0.18 0.15 0.12 0.09 0.05 0.03 0.02 0.01 0.01 0.01 0.01 0.01 0.01 0.00 0.00 0.01 0.01 0.01 0.01 0.00 0.00 0.00 0.00 0.00 0.00 0.00 0.00 0.00 0.00
0.15 0.08 0.05 0.06 0.05 0.05 0.06 0.06 0.05 0.07 0.07 0.04 0.06 0.08 0.12 0.15 0.12 0.10 0.14 0.18 0.21 0.17 0.14 0.11 0.06 0.03 0.02 0.01 0.01 0.01 0.01 0.01 0.01 0.00 0.00 0.00 0.01 0.01 0.01 0.00 0.00 0.00 0.00 0.00 0.00 0.00 0.00 0.00 0.00
0.14 0.08 0.07 0.07 0.05 0.05 0.06 0.08 0.06 0.06 0.04 0.02 0.04 0.08 0.12 0.18 0.15 0.10 0.11 0.16 0.20 0.20 0.15 0.15 0.10 0.05 0.02 0.01 0.01 0.01 0.00 0.00 0.00 0.00 0.00 0.00 0.00 0.01 0.00 0.00 0.00 0.00 0.00 0.00 0.00 0.00 0.00 0.00 0.00
0.13 0.09 0.08 0.08 0.06 0.05 0.06 0.08 0.09 0.06 0.04 0.05 0.05 0.07 0.12 0.19 0.23 0.15 0.12 0.13 0.17 0.19 0.17 0.18 0.15 0.08 0.03 0.02 0.01 0.00 0.01 0.01 0.01 0.01 0.01 0.00 0.00 0.00 0.00 0.00 0.00 0.00 0.00 0.00 0.00 0.00 0.00 0.00 0.00
0.12 0.10 0.09 0.07 0.07 0.06 0.07 0.07 0.10 0.09 0.07 0.08 0.09 0.10 0.13 0.18 0.26 0.22 0.18 0.14 0.15 0.16 0.15 0.16 0.17 0.13 0.06 0.03 0.01 0.00 0.01 0.01 0.01 0.01 0.01 0.01 0.01 0.00 0.00 0.00 0.00 0.00 0.00 0.00 0.01 0.01 0.01 0.01 0.00
0.11 0.10 0.09 0.08 0.07 0.06 0.07 0.08 0.08 0.09 0.07 0.07 0.09 0.10 0.16 0.19 0.21 0.23 0.20 0.18 0.16 0.17 0.16 0.15 0.17 0.18 0.11 0.05 0.03 0.01 0.01 0.01 0.01 0.01 0.01 0.01 0.01 0.00 0.00 0.01 0.01 0.01 0.01 0.01 0.01 0.01 0.00 0.00 0.00
0.10 0.10 0.08 0.09 0.08 0.06 0.07 0.08 0.06 0.07 0.07 0.06 0.07 0.09 0.13 0.19 0.20 0.21 0.23 0.22 0.23 0.23 0.22 0.18 0.18 0.23 0.20 0.11 0.07 0.04 0.02 0.01 0.01 0.01 0.01 0.01 0.01 0.01 0.01 0.01 0.01 0.00 0.00 0.01 0.01 0.00 0.00 0.00 0.00
0.10 0.09 0.07 0.07 0.08 0.08 0.07 0.07 0.05 0.05 0.06 0.05 0.06 0.08 0.11 0.15 0.19 0.21 0.22 0.24 0.29 0.29 0.25 0.22 0.21 0.24 0.28 0.21 0.12 0.07 0.04 0.03 0.02 0.03 0.03 0.03 0.03 0.03 0.04 0.04 0.03 0.02 0.02 0.02 0.02 0.02 0.01 0.01 0.01
0.07 0.07 0.06 0.07 0.05 0.06 0.06 0.05 0.05 0.05 0.05 0.04 0.05 0.08 0.09 0.12 0.17 0.18 0.19 0.21 0.28 0.34 0.34 0.30 0.28 0.24 0.26 0.31 0.24 0.14 0.09 0.07 0.07 0.06 0.06 0.06 0.05 0.04 0.04 0.04 0.04 0.04 0.04 0.04 0.04 0.03 0.02 0.02 0.02
0.04 0.06 0.06 0.05 0.04 0.05 0.05 0.04 0.05 0.06 0.05 0.04 0.04 0.06 0.08 0.10 0.13 0.15 0.17 0.18 0.21 0.27 0.33 0.34 0.38 0.40 0.34 0.31 0.30 0.22 0.13 0.10 0.08 0.07 0.07 0.07 0.07 0.07 0.07 0.06 0.05 0.05 0.04 0.04 0.04 0.04 0.04 0.04 0.03
0.02 0.04 0.05 0.05 0.04 0.04 0.04 0.03 0.04 0.06 0.06 0.03 0.03 0.04 0.05 0.07 0.09 0.10 0.12 0.15 0.19 0.23 0.25 0.27 0.28 0.34 0.39 0.35 0.29 0.26 0.20 0.14 0.12 0.10 0.08 0.07 0.08 0.08 0.09 0.08 0.08 0.08 0.08 0.06 0.06 0.06 0.06 0.06 0.05
0.02 0.02 0.05 0.06 0.04 0.05 0.04 0.04 0.04 0.05 0.06 0.04 0.03 0.03 0.04 0.04 0.06 0.08 0.07 0.10 0.16 0.19 0.20 0.21 0.21 0.21 0.26 0.33 0.29 0.27 0.25 0.21 0.15 0.12 0.11 0.11 0.11 0.10 0.10 0.11 0.12 0.12 0.11 0.10 0.10 0.08 0.07 0.05 0.04
0.02 0.02 0.04 0.04 0.05 0.06 0.04 0.05 0.04 0.04 0.05 0.04 0.03 0.03 0.04 0.03 0.03 0.05 0.05 0.06 0.08 0.12 0.16 0.18 0.19 0.20 0.23 0.30 0.28 0.23 0.19 0.18 0.17 0.14 0.13 0.13 0.13 0.13 0.13 0.13 0.13 0.14 0.14 0.14 0.12 0.10 0.08 0.06 0.05
0.01 0.02 0.04 0.04 0.04 0.03 0.03 0.04 0.06 0.06 0.05 0.04 0.02 0.03 0.03 0.02 0.02 0.03 0.03 0.04 0.04 0.06 0.11 0.14 0.17 0.18 0.20 0.25 0.24 0.23 0.23 0.23 0.23 0.21 0.17 0.14 0.12 0.13 0.14 0.15 0.16 0.15 0.14 0.13 0.10 0.10 0.08 0.06 0.05
0.02 0.03 0.04 0.03 0.03 0.02 0.02 0.02 0.04 0.04 0.03 0.04 0.03 0.02 0.01 0.01 0.01 0.02 0.02 0.02 0.02 0.03 0.06 0.09 0.12 0.14 0.15 0.18 0.20 0.22 0.21 0.20 0.22 0.24 0.23 0.20 0.18 0.17 0.15 0.15 0.14 0.13 0.12 0.11 0.11 0.10 0.09 0.07 0.06
0.01 0.02 0.04 0.03 0.03 0.02 0.01 0.01 0.03 0.02 0.02 0.03 0.02 0.01 0.01 0.00 0.00 0.01 0.01 0.01 0.01 0.01 0.02 0.03 0.05 0.07 0.09 0.11 0.14 0.18 0.20 0.20 0.18 0.18 0.19 0.19 0.17 0.16 0.16 0.16 0.15 0.14 0.13 0.13 0.13 0.12 0.10 0.08 0.07
0.00 0.01 0.03 0.03 0.02 0.01 0.01 0.01 0.02 0.01 0.01 0.01 0.01 0.01 0.00 0.00 0.00 0.00 0.01 0.01 0.00 0.00 0.01 0.01 0.03 0.03 0.05 0.06 0.08 0.10 0.12 0.14 0.15 0.15 0.15 0.13 0.11 0.11 0.13 0.14 0.13 0.13 0.12 0.11 0.10 0.10 0.10 0.09 0.08
0.00 0.01 0.01 0.01 0.01 0.01 0.01 0.01 0.01 0.01 0.00 0.01 0.01 0.01 0.00 0.00 0.00 0.00 0.01 0.00 0.00 0.00 0.01 0.01 0.01 0.02 0.03 0.04 0.05 0.07 0.08 0.09 0.11 0.13 0.14 0.12 0.11 0.11 0.11 0.11 0.11 0.11 0.09 0.07 0.07 0.08 0.09 0.08 0.08
0.00 0.00 0.00 0.01 0.01 0.01 0.01 0.01 0.01 0.01 0.00 0.00 0.01 0.01 0.01 0.00 0.00 0.00 0.01 0.00 0.00 0.00 0.00 0.01 0.01 0.01 0.01 0.02 0.04 0.05 0.07 0.09 0.09 0.10 0.11 0.11 0.11 0.10 0.09 0.09 0.09 0.09 0.09 0.08 0.07 0.08 0.09 0.09 0.08
0.00 0.00 0.00 0.01 0.01 0.01 0.01 0.02 0.02 0.01 0.01 0.01 0.02 0.02 0.01 0.00 0.00 0.01 0.01 0.00 0.00 0.00 0.00 0.01 0.00 0.01 0.01 0.02 0.02 0.04 0.06 0.08 0.09 0.09 0.09 0.09 0.09 0.10 0.10 0.10 0.10 0.09 0.08 0.08 0.07 0.07 0.08 0.08 0.08
0.00 0.00 0.00 0.01 0.01 0.01 0.01 0.01 0.02 0.02 0.01 0.01 0.02 0.01 0.01 0.00 0.01 0.01 0.01 0.00 0.00 0.00 0.00 0.01 0.01 0.01 0.01 0.01 0.02 0.03 0.04 0.05 0.06 0.08 0.08 0.09 0.11 0.11 0.09 0.09 0.10 0.10 0.09 0.08 0.07 0.06 0.06 0.06 0.06
MSLP
1015.61 1015.39 1015.04 1014.55 1013.94 1013.26 1012.57 1011.97 1011.51 1011.25 1011.15 1011.18 1011.27 1011.34 1011.32 1011.17 1010.91 1010.59 1010.30 1010.14 1010.17 1010.43 1010.92 1011.56 1012.28 1012.96 1013.53 1013.92 1014.15 1014.24 1014.27 1014.30 1014.42 1014.65 1014.98 1015.40 1015.85 1016.27 1016.61 1016.87 1017.06 1017.19 1017.32 1017.48 1017.67 1017.91 1018.17 1018.41 1018.60
1015.48 1015.19 1014.73 1014.12 1013.39 1012.61 1011.87 1011.27 1010.87 1010.71 1010.75 1010.93 1011.15 1011.31 1011.33 1011.18 1010.87 1010.48 1010.10 1009.85 1009.83 1010.06 1010.56 1011.24 1012.02 1012.78 1013.42 1013.88 1014.16 1014.28 1014.33 1014.37 1014.49 1014.72 1015.06 1015.49 1015.94 1016.38 1016.75 1017.03 1017.24 1017.40 1017.55 1017.73 1017.96 1018.22 1018.50 1018.76 1018.96
1015.34 1014.97 1014.40 1013.67 1012.82 1011.96 1011.18 1010.59 1010.26 1010.21 1010.39 1010.72 1011.08 1011.36 1011.45 1011.33 1011.01 1010.57 1010.14 1009.83 1009.74 1009.93 1010.40 1011.09 1011.88 1012.67 1013.35 1013.85 1014.17 1014.32 1014.39 1014.45 1014.57 1014.80 1015.15 1015.58 1016.04 1016.49 1016.87 1017.18 1017.42 1017.61 1017.80 1018.01 1018.26 1018.54 1018.84 1019.10 1019.31
1015.22 1014.75 1014.08 1013.24 1012.29 1011.36 1010.54 1009.97 1009.69 1009.74 1010.04 1010.51 1011.01 1011.40 1011.60 1011.54 1011.27 1010.84 1010.40 1010.06 1009.93 1010.08 1010.50 1011.15 1011.91 1012.69 1013.36 1013.88 1014.21 1014.39 1014.48 1014.56 1014.70 1014.93 1015.28 1015.70 1016.17 1016.62 1017.02 1017.35 1017.62 1017.85 1018.07 1018.31 1018.58 1018.88 1019.17 1019.43 1019.62
1015.11 1014.57 1013.81 1012.88 1011.86 1010.86 1010.02 1009.44 1009.20 1009.30 1009.69 1010.25 1010.86 1011.36 1011.67 1011.73 1011.54 1011.20 1010.81 1010.49 1010.36 1010.47 1010.84 1011.41 1012.11 1012.83 1013.46 1013.96 1014.29 1014.49 1014.61 1014.72 1014.87 1015.12 1015.47 1015.89 1016.35 1016.81 1017.22 1017.57 1017.86 1018.12 1018.37 1018.63 1018.91 1019.21 1019.49 1019.73 1019.90
1015.00 1014.41 1013.59 1012.60 1011.53 1010.51 1009.65 1009.06 1008.82 1008.93 1009.34 1009.94 1010.61 1011.20 1011.61 1011.80 1011.75 1011.53 1011.25 1011.01 1010.91 1011.01 1011.33 1011.82 1012.43 1013.05 1013.62 1014.07 1014.40 1014.62 1014.77 1014.91 1015.11 1015.38 1015.73 1016.15 1016.61 1017.06 1017.47 1017.83 1018.14 1018.41 1018.68 1018.95 1019.22 1019.50 1019.77 1019.98 1020.12
1014.85 1014.23 1013.39 1012.41 1011.34 1010.32 1009.46 1008.87 1008.60 1008.68 1009.05 1009.61 1010.27 1010.90 1011.39 1011.70 1011.81 1011.76 1011.63 1011.51 1011.48 1011.59 1011.86 1012.26 1012.76 1013.28 1013.77 1014.17 1014.49 1014.73 1014.93 1015.13 1015.37 1015.68 1016.05 1016.48 1016.92 1017.36 1017.76 1018.12 1018.43 1018.71 1018.97 1019.23 1019.49 1019.74 1019.96 1020.14 1020.26
1014.62 1014.01 1013.20 1012.26 1011.26 1010.30 1009.48 1008.89 1008.58 1008.59 1008.86 1009.34 1009.92 1010.52 1011.05 1011.45 1011.70 1011.82 1011.86 1011.88 1011.93 1012.07 1012.30 1012.63 1013.02 1013.43 1013.83 1014.20 1014.52 1014.80 1015.06 1015.33 1015.64 1015.99 1016.39 1016.82 1017.25 1017.67 1018.05 1018.39 1018.69 1018.96 1019.21 1019.45 1019.67 1019.88 1020.07 1020.21 1020.30
1014.31 1013.72 1012.98 1012.15 1011.28 1010.44 1009.70 1009.14 1008.81 1008.72 1008.86 1009.19 1009.64 1010.16 1010.66 1011.11 1011.46 1011.73 1011.93 1012.08 1012.22 1012.38 1012.58 1012.83 1013.12 1013.44 1013.77 1014.11 1014.44 1014.77 1015.11 1015.47 1015.86 1016.26 1016.69 1017.12 1017.53 1017.93 1018.28 1018.60 1018.88 1019.13 1019.36 1019.57 1019.77 1019.93 1020.07 1020.18 1020.24
1013.90 1013.35 1012.73 1012.05 1011.35 1010.68 1010.09 1009.60 1009.25 1009.08 1009.08 1009.23 1009.51 1009.89 1010.31 1010.75 1011.16 1011.53 1011.84 1012.10 1012.31 1012.49 1012.67 1012.85 1013.05 1013.29 1013.56 1013.88 1014.24 1014.64 1015.06 1015.52 1015.98 1016.44 1016.89 1017.32 1017.72 1018.08 1018.41 1018.71 1018.97 1019.21 1019.42 1019.61 1019.77 1019.90 1020.00 1020.07 1020.11
1013.43 1012.93 1012.42 1011.93 1011.45 1011.00 1010.58 1010.20 1009.88 1009.64 1009.50 1009.47 1009.56 1009.77 1010.07 1010.45 1010.87 1011.29 1011.67 1012.00 1012.25 1012.44 1012.57 1012.69 1012.82 1012.99 1013.22 1013.54 1013.93 1014.40 1014.91 1015.45 1015.99 1016.50 1016.97 1017.39 1017.77 1018.11 1018.41 1018.69 1018.94 1019.17 1019.38 1019.55 1019.70 1019.80 1019.87 1019.91 1019.93
1012.91 1012.46 1012.09 1011.79 1011.54 1011.32 1011.10 1010.86 1010.59 1010.32 1010.06 1009.86 1009.76 1009.79 1009.95 1010.24 1010.62 1011.04 1011.46 1011.81 1012.08 1012.26 1012.36 1012.42 1012.48 1012.60 1012.81 1013.14 1013.57 1014.10 1014.69 1015.30 1015.89 1016.43 1016.91 1017.32 1017.68 1017.99 1018.28 1018.55 1018.81 1019.05 1019.26 1019.45 1019.59 1019.68 1019.73 1019.75 1019.76
1012.40 1011.99 1011.73 1011.61 1011.58 1011.58 1011.56 1011.46 1011.27 1010.98 1010.63 1010.30 1010.03 1009.90 1009.92 1010.11 1010.43 1010.83 1011.24 1011.60 1011.86 1012.02 1012.09 1012.10 1012.12 1012.21 1012.41 1012.74 1013.21 1013.79 1014.43 1015.09 1015.71 1016.26 1016.74 1017.13 1017.46 1017.76 1018.04 1018.31 1018.59 1018.86 1019.11 1019.31 1019.47 1019.57 1019.61 1019.62 1019.61
1011.93 1011.55 1011.38 1011.40 1011.54 1011.72 1011.86 1011.89 1011.76 1011.47 1011.07 1010.64 1010.25 1009.99 1009.90 1010.00 1010.26 1010.62 1011.02 1011.37 1011.63 1011.77 1011.81 1011.80 1011.80 1011.88 1012.08 1012.43 1012.93 1013.53 1014.21 1014.88 1015.50 1016.04 1016.49 1016.86 1017.17 1017.44 1017.72 1018.02 1018.33 1018.64 1018.93 1019.18 1019.37 1019.49 1019.53 1019.53 1019.51
1011.54 1011.18 1011.06 1011.16 1011.41 1011.71 1011.95 1012.06 1011.97 1011.68 1011.25 1010.75 1010.29 1009.94 1009.78 1009.82 1010.04 1010.39 1010.77 1011.12 1011.38 1011.52 1011.57 1011.56 1011.57 1011.65 1011.87 1012.24 1012.75 1013.37 1014.05 1014.71 1015.31 1015.82 1016.23 1016.55 1016.83 1017.10 1017.39 1017.71 1018.06 1018.42 1018.76 1019.06 1019.28 1019.42 1019.49 1019.49 1019.45
1011.24 1010.88 1010.78 1010.91 1011.20 1011.53 1011.81 1011.93 1011.85 1011.56 1011.10 1010.57 1010.07 1009.69 1009.50 1009.53 1009.74 1010.08 1010.47 1010.83 1011.11 1011.28 1011.35 1011.37 1011.41 1011.53 1011.78 1012.17 1012.70 1013.32 1013.98 1014.61 1015.16 1015.62 1015.98 1016.26 1016.51 1016.77 1017.06 1017.41 1017.80 1018.21 1018.60 1018.94 1019.20 1019.37 1019.45 1019.46 1019.42
1011.04 1010.67 1010.56 1010.67 1010.93 1011.22 1011.46 1011.54 1011.43 1011.10 1010.63 1010.10 1009.60 1009.23 1009.05 1009.09 1009.32 1009.68 1010.09 1010.49 1010.79 1011.00 1011.13 1011.20 1011.30 1011.48 1011.77 1012.19 1012.73 1013.35 1013.97 1014.56 1015.05 1015.45 1015.76 1016.00 1016.22 1016.47 1016.77 1017.14 1017.56 1018.01 1018.44 1018.81 1019.10 1019.29 1019.39 1019.41 1019.38
1010.93 1010.56 1010.42 1010.46 1010.63 1010.83 1010.97 1010.97 1010.78 1010.42 1009.94 1009.41 1008.95 1008.62 1008.48 1008.56 1008.82 1009.21 1009.65 1010.07 1010.42 1010.68 1010.86 1011.01 1011.18 1011.42 1011.77 1012.24 1012.79 1013.39 1013.99 1014.52 1014.96 1015.30 1015.56 1015.77 1015.97 1016.21 1016.51 1016.89 1017.34 1017.80 1018.25 1018.64 1018.95 1019.16 1019.27 1019.30 1019.29
1010.90 1010.53 1010.35 1010.31 1010.36 1010.43 1010.43 1010.31 1010.05 1009.64 1009.15 1008.66 1008.24 1007.97 1007.89 1008.01 1008.31 1008.72 1009.17 1009.61 1009.98 1010.28 1010.52 1010.74 1010.99 1011.31 1011.72 1012.22 1012.79 1013.38 1013.95 1014.44 1014.83 1015.13 1015.35 1015.53 1015.72 1015.96 1016.27 1016.66 1017.11 1017.58 1018.03 1018.42 1018.73 1018.95 1019.07 1019.12 1019.13
1010.94 1010.58 1010.35 1010.23 1010.15 1010.08 1009.94 1009.71 1009.36 1008.92 1008.45 1007.99 1007.64 1007.43 1007.41 1007.57 1007.87 1008.28 1008.71 1009.13 1009.50 1009.81 1010.09 1010.36 1010.67 1011.05 1011.52 1012.07 1012.65 1013.24 1013.79 1014.25 1014.61 1014.88 1015.08 1015.26 1015.45 1015.70 1016.02 1016.41 1016.86 1017.33 1017.77 1018.15 1018.45 1018.67 1018.80 1018.87 1018.91
1011.04 1010.70 1010.44 1010.23 1010.05 1009.85 1009.60 1009.27 1008.86 1008.41 1007.96 1007.56 1007.27 1007.13 1007.14 1007.31 1007.59 1007.95 1008.32 1008.67 1008.99 1009.28 1009.55 1009.85 1010.20 1010.63 1011.14 1011.71 1012.32 1012.91 1013.45 1013.89 1014.25 1014.51 1014.72 1014.91 1015.13 1015.40 1015.74 1016.14 1016.59 1017.04 1017.47 1017.83 1018.12 1018.33 1018.48 1018.57 1018.64
1011.18 1010.87 1010.59 1010.34 1010.07 1009.78 1009.45 1009.06 1008.63 1008.19 1007.79 1007.45 1007.23 1007.13 1007.16 1007.30 1007.51 1007.77 1008.03 1008.27 1008.49 1008.70 1008.93 1009.21 1009.56 1010.01 1010.55 1011.14 1011.76 1012.35 1012.89 1013.35 1013.71 1014.00 1014.24 1014.47 1014.73 1015.04 1015.41 1015.84 1016.29 1016.73 1017.14 1017.49 1017.77 1017.98 1018.13 1018.25 1018.35
1011.35 1011.08 1010.81 1010.53 1010.22 1009.88 1009.50 1009.09 1008.68 1008.28 1007.94 1007.67 1007.50 1007.42 1007.44 1007.51 1007.62 1007.74 1007.85 1007.93 1008.01 1008.10 1008.24 1008.47 1008.80 1009.24 1009.77 1010.37 1010.99 1011.59 1012.14 1012.61 1013.01 1013.34 1013.64 1013.93 1014.26 1014.63 1015.04 1015.49 1015.96 1016.40 1016.81 1017.15 1017.42 1017.64 1017.80 1017.95 1018.09
1011.55 1011.33 1011.09 1010.81 1010.49 1010.14 1009.75 1009.36 1008.98 1008.64 1008.35 1008.15 1008.01 1007.94 1007.91 1007.90 1007.87 1007.82 1007.74 1007.64 1007.55 1007.50 1007.53 1007.67 1007.95 1008.35 1008.86 1009.45 1010.07 1010.68 1011.24 1011.74 1012.18 1012.57 1012.94 1013.31 1013.72 1014.16 1014.63 1015.12 1015.61 1016.07 1016.48 1016.82 1017.10 1017.33 1017.52 1017.70 1017.87
1011.77 1011.62 1011.42 1011.17 1010.86 1010.52 1010.15 1009.79 1009.45 1009.17 1008.95 1008.78 1008.67 1008.57 1008.48 1008.36 1008.19 1007.96 1007.69 1007.40 1007.13 1006.93 1006.83 1006.88 1007.08 1007.43 1007.91 1008.47 1009.07 1009.68 1010.26 1010.79 1011.28 1011.74 1012.19 1012.65 1013.14 1013.66 1014.20 1014.74 1015.26 1015.74 1016.16 1016.53 1016.83 1017.08 1017.30 1017.52 1017.73
1012.02 1011.94 1011.80 1011.58 1011.31 1010.99 1010.65 1010.33 1010.04 1009.80 1009.61 1009.47 1009.35 1009.22 1009.05 1008.81 1008.49 1008.10 1007.65 1007.19 1006.77 1006.42 1006.21 1006.16 1006.28 1006.57 1006.99 1007.51 1008.09 1008.69 1009.28 1009.84 1010.39 1010.92 1011.45 1012.00 1012.57 1013.16 1013.77 1014.36 1014.92 1015.43 1015.88 1016.26 1016.60 1016.89 1017.16 1017.41 1017.67
1012.32 1012.30 1012.21 1012.04 1011.80 1011.51 1011.20 1010.90 1010.64 1010.43 1010.26 1010.12 1009.98 1009.79 1009.54 1009.20 1008.76 1008.23 1007.64 1007.04 1006.49 1006.03 1005.72 1005.58 1005.62 1005.84 1006.21 1006.68 1007.22 1007.81 1008.40 1008.99 1009.57 1010.17 1010.77 1011.40 1012.05 1012.71 1013.37 1014.00 1014.60 1015.14 1015.62 1016.04 1016.41 1016.75 1017.07 1017.38 1017.69
1012.66 1012.71 1012.66 1012.53 1012.31 1012.05 1011.76 1011.48 1011.23 1011.02 1010.85 1010.69 1010.51 1010.27 1009.95 1009.52 1008.98 1008.36 1007.67 1006.98 1006.35 1005.81 1005.42 1005.21 1005.18 1005.34 1005.63 1006.05 1006.55 1007.10 1007.69 1008.29 1008.91 1009.56 1010.22 1010.91 1011.62 1012.33 1013.03 1013.70 1014.33 1014.89 1015.40 1015.86 1016.28 1016.67 1017.05 1017.42 1017.78
1013.04 1013.13 1013.12 1013.01 1012.81 1012.56 1012.28 1012.01 1011.76 1011.55 1011.36 1011.17 1010.95 1010.66 1010.29 1009.80 1009.21 1008.53 1007.80 1007.07 1006.39 1005.81 1005.38 1005.11 1005.02 1005.11 1005.34 1005.69 1006.13 1006.65 1007.21 1007.82 1008.46 1009.14 1009.85 1010.59 1011.33 1012.08 1012.81 1013.49 1014.13 1014.71 1015.24 1015.73 1016.19 1016.64 1017.08 1017.51 1017.93
1013.44 1013.55 1013.56 1013.46 1013.27 1013.03 1012.76 1012.49 1012.24 1012.02 1011.81 1011.59 1011.34 1011.02 1010.61 1010.10 1009.49 1008.80 1008.06 1007.33 1006.64 1006.05 1005.59 1005.29 1005.14 1005.16 1005.32 1005.60 1005.99 1006.45 1006.99 1007.59 1008.25 1008.94 1009.68 1010.44 1011.21 1011.97 1012.70 1013.39 1014.02 1014.61 1015.15 1015.67 1016.17 1016.66 1017.16 1017.65 1018.13
Thickness
5637 5643 5648 5648 5643 5646 5663 5687 5697 5703 5710 5721 5729 5732 5737 5740 5740 5740 5753 5765 5766 5764 5760 5754 5752 5751 5750 5749 5748 5747 5746 5745 5744 5743 5742 5740 5738 5737 5735 5733 5732 5730 5728 5727 5725 5724 5722 5721 5720
5626 5631 5633 5633 5633 5638 5662 5681 5685 5696 5706 5714 5719 5724 5728 5734 5741 5743 5750 5757 5759 5758 5755 5752 5748 5747 5746 5745 5744 5743 5742 5742 5741 5740 5738 5737 5735 5733 5732 5730 5728 5726 5725 5723 5721 5720 5719 5718 5717
5614 5618 5618 5620 5628 5645 5663 5676 5681 5691 5700 5703 5708 5717 5722 5727 5733 5739 5747 5751 5752 5752 5750 5746 5743 5742 5741 5740 5740 5739 5739 5738 5737 5736 5735 5733 5731 5730 5728 5726 5725 5723 5721 5719 5718 5716 5715 5714 5713
5601 5602 5604 5609 5625 5649 5661 5670 5675 5678 5685 5694 5700 5704 5714 5725 5731 5737 5742 5745 5746 5745 5744 5740 5738 5737 5736 5736 5735 5735 5734 5734 5733 5732 5730 5729 5727 5726 5724 5722 5720 5718 5717 5715 5714 5713 5711 5710 5710
5588 5590 5591 5600 5620 5641 5653 5660 5663 5666 5674 5684 5691 5695 5703 5716 5727 5731 5734 5737 5739 5739 5738 5734 5732 5732 5731 5730 5730 5730 5729 5729 5728 5727 5726 5725 5723 5721 5719 5717 5716 5714 5713 5711 5710 5709 5708 5707 5706
5574 5580 5583 5594 5613 5630 5640 5647 5651 5656 5666 5676 5682 5686 5695 5708 5715 5721 5726 5728 5731 5732 5731 5728 5726 5726 5726 5725 5725 5725 5724 5724 5724 5723 5721 5720 5718 5717 5715 5713 5711 5710 5709 5707 5706 5705 5704 5703 5702
5564 5570 5580 5593 5606 5616 5627 5636 5639 5644 5653 5665 5675 5677 5687 5696 5705 5712 5717 5720 5723 5724 5724 5723 5721 5720 5720 5720 5720 5719 5719 5719 5718 5717 5716 5715 5713 5712 5710 5709 5707 5706 5704 5703 5702 5701 5700 5700 5699
5558 5562 5572 5585 5595 5606 5618 5623 5631 5636 5645 5660 5667 5670 5677 5688 5697 5702 5707 5710 5713 5716 5717 5718 5718 5717 5716 5715 5714 5714 5714 5713 5713 5712 5710 5709 5708 5706 5705 5704 5703 5702 5700 5699 5698 5697 5696 5696 5695
5549 5551 5564 5578 5588 5599 5607 5612 5621 5632 5638 5646 5658 5669 5679 5684 5687 5690 5694 5699 5702 5706 5710 5712 5713 5713 5712 5712 5710 5709 5708 5707 5707 5706 5705 5704 5704 5703 5701 5700 5698 5697 5696 5695 5694 5693 5692 5692 5691
5542 5548 5563 5576 5586 5592 5597 5603 5611 5618 5624 5632 5644 5658 5668 5672 5676 5681 5685 5690 5694 5698 5702 5705 5707 5707 5707 5707 5705 5705 5704 5703 5704 5703 5701 5701 5701 5700 5698 5694 5693 5692 5691 5690 5690 5689 5688 5689 5690
5541 5550 5562 5568 5576 5583 5587 5594 5602 5608 5614 5624 5635 5647 5657 5663 5667 5674 5680 5685 5687 5692 5695 5698 5700 5701 5702 5702 5702 5702 5701 5700 5700 5700 5698 5698 5696 5694 5693 5691 5689 5688 5687 5687 5686 5686 5687 5688 5688
5539 5548 5555 5562 5568 5574 5580 5586 5592 5599 5609 5621 5631 5639 5647 5653 5659 5668 5674 5678 5681 5684 5689 5692 5694 5695 5696 5696 5697 5697 5697 5696 5696 5695 5694 5693 5692 5691 5690 5689 5688 5687 5686 5685 5685 5685 5685 5684 5684
5537 5544 5551 5557 5564 5570 5575 5580 5586 5592 5605 5616 5624 5632 5639 5647 5653 5661 5669 5673 5676 5679 5683 5687 5688 5689 5689 5690 5690 5691 5691 5691 5691 5690 5689 5689 5688 5688 5686 5686 5684 5684 5683 5682 5682 5682 5682 5681 5681
5536 5543 5549 5555 5561 5566 5569 5575 5581 5589 5600 5610 5618 5626 5634 5642 5647 5654 5661 5666 5672 5676 5678 5680 5682 5683 5683 5684 5685 5686 5686 5685 5686 5685 5685 5684 5684 5683 5682 5682 5680 5680 5679 5678 5678 5678 5677 5677 5676
5535 5540 5548 5554 5559 5564 5566 5568 5578 5586 5594 5603 5612 5622 5630 5637 5643 5649 5655 5661 5667 5672 5675 5676 5676 5677 5678 5679 5680 5681 5681 5680 5681 5680 5680 5680 5680 5679 5678 5678 5676 5675 5675 5674 5673 5673 5673 5672 5671
5534 5539 5544 5553 5557 5561 5562 5566 5578 5583 5590 5598 5608 5617 5624 5632 5639 5647 5650 5655 5661 5666 5669 5671 5672 5672 5672 5673 5674 5675 5676 5676 5676 5676 5676 5675 5675 5674 5674 5673 5672 5671 5670 5669 5668 5668 5667 5667 5666
5534 5538 5543 5550 5556 5559 5561 5566 5575 5581 5588 5595 5604 5612 5620 5627 5633 5639 5645 5650 5655 5660 5663 5665 5666 5667 5667 5668 5668 5669 5670 5671 5671 5671 5671 5671 5670 5669 5669 5668 5667 5666 5665 5664 5663 5662 5662 5662 5660
5538 5541 5545 5549 5554 5558 5561 5567 5575 5581 5587 5595 5602 5610 5616 5622 5628 5635 5639 5645 5650 5655 5658 5660 5660 5661 5662 5662 5661 5662 5663 5665 5666 5666 5666 5666 5665 5664 5663 5663 5662 5662 5660 5659 5658 5657 5656 5656 5654
5541 5542 5546 5550 5553 5557 5563 5570 5577 5583 5588 5595 5601 5607 5613 5619 5625 5631 5634 5639 5643 5647 5650 5652 5653 5654 5655 5656 5655 5656 5658 5659 5660 5661 5661 5661 5660 5660 5659 5658 5658 5657 5656 5655 5653 5652 5650 5648 5647
5540 5543 5547 5550 5553 5558 5563 5571 5579 5582 5587 5593 5599 5604 5608 5614 5620 5624 5628 5633 5638 5640 5644 5646 5648 5650 5650 5650 5651 5653 5654 5654 5655 5655 5655 5655 5655 5655 5654 5654 5653 5652 5651 5650 5648 5645 5644 5642 5640
5541 5544 5548 5549 5552 5559 5563 5572 5578 5582 5586 5590 5596 5601 5605 5609 5615 5620 5623 5628 5631 5634 5637 5640 5643 5644 5645 5645 5646 5646 5646 5647 5647 5648 5649 5650 5650 5650 5650 5649 5647 5646 5644 5643 5641 5639 5637 5636 5634
5541 5545 5547 5548 5553 5556 5562 5569 5579 5579 5583 5588 5594 5598 5601 5605 5609 5613 5618 5622 5625 5627 5631 5634 5636 5637 5638 5637 5639 5640 5641 5642 5644 5643 5643 5644 5644 5644 5643 5642 5641 5640 5639 5637 5635 5633 5631 5630 5627
5542 5544 5546 5548 5552 5556 5564 5569 5576 5575 5579 5583 5589 5593 5596 5600 5604 5608 5611 5614 5617 5620 5624 5627 5630 5631 5632 5633 5634 5635 5636 5638 5638 5637 5638 5638 5638 5637 5637 5635 5633 5633 5632 5630 5628 5626 5625 5623 5622
5541 5544 5546 5548 5554 5556 5560 5566 5572 5571 5572 5577 5583 5587 5591 5595 5599 5602 5604 5607 5610 5614 5616 5620 5623 5624 5626 5627 5628 5629 5630 5630 5629 5629 5629 5630 5630 5630 5629 5628 5627 5626 5624 5623 5621 5620 5618 5616 5614
5543 5546 5548 5551 5556 5561 5557 5562 5567 5566 5567 5571 5576 5581 5586 5590 5593 5597 5599 5601 5604 5607 5610 5612 5614 5616 5618 5620 5620 5621 5622 5622 5623 5622 5622 5621 5622 5622 5622 5620 5620 5619 5617 5615 5613 5611 5609 5608 5605
5543 5546 5548 5553 5558 5561 5557 5561 5565 5563 5564 5568 5572 5576 5579 5583 5587 5589 5591 5593 5596 5598 5601 5604 5606 5608 5610 5611 5612 5612 5613 5613 5614 5615 5615 5615 5615 5616 5614 5613 5612 5610 5608 5607 5604 5603 5601 5598 5596
5543 5544 5542 5545 5544 5551 5561 5561 5563 5561 5563 5566 5569 5572 5573 5576 5579 5581 5583 5585 5587 5590 5592 5595 5597 5599 5600 5602 5602 5602 5603 5603 5604 5604 5604 5605 5605 5605 5605 5603 5602 5600 5599 5597 5595 5592 5590 5588 5586
5539 5540 5540 5540 5544 5552 5559 5560 5563 5557 5557 5560 5563 5564 5567 5569 5573 5574 5576 5578 5580 5581 5584 5587 5588 5589 5590 5591 5591 5592 5593 5593 5594 5593 5593 5594 5595 5595 5594 5593 5591 5589 5588 5586 5584 5581 5579 5577 5574
5535 5536 5538 5540 5542 5548 5553 5560 5556 5554 5553 5554 5555 5557 5559 5562 5565 5567 5568 5569 5571 5573 5574 5576 5577 5578 5580 5580 5581 5581 5582 5582 5583 5583 5583 5583 5583 5584 5583 5583 5581 5579 5577 5575 5573 5570 5567 5565 5562
5534 5537 5538 5537 5533 5538 5546 5552 5549 5549 5548 5548 5549 5549 5551 5553 5555 5557 5558 5560 5561 5562 5563 5564 5565 5566 5567 5568 5569 5571 5571 5571 5572 5572 5572 5572 5572 5572 5572 5571 5569 5567 5565 5563 5563 5560 5556 5553 5551